owner,sensor,date,latitude,longitude,vertical_datum,sea_water_temperature,qcFlag
Chevron,ioos:station:wmo:42372:2,2021-09-02T15:15:00Z,27.7790,-90.5190,10.4,29.7,11111222
Chevron,ioos:station:wmo:42372:2,2021-09-02T15:25:00Z,27.7790,-90.5190,10.3,29.7,11111222
Chevron,ioos:station:wmo:42372:2,2021-09-02T15:35:00Z,27.7790,-90.5190,10.3,29.7,11111222
Chevron,ioos:station:wmo:42372:2,2021-09-02T15:45:00Z,27.7790,-90.5190,10.4,29.7,11111222
Chevron,ioos:station:wmo:42372:2,2021-09-02T15:55:00Z,27.7790,-90.5190,10.2,29.7,11111222
Chevron,ioos:station:wmo:42372:2,2021-09-02T16:05:00Z,27.7790,-90.5190,10.1,29.7,11111222
Chevron,ioos:station:wmo:42372:2,2021-09-02T16:15:00Z,27.7790,-90.5190,10.2,29.7,11111222
Chevron,ioos:station:wmo:42372:2,2021-09-02T16:25:00Z,27.7790,-90.5190,10.1,29.7,11111222
Chevron,ioos:station:wmo:42372:2,2021-09-02T16:35:00Z,27.7790,-90.5190,9.9,29.7,11111222
Chevron,ioos:station:wmo:42372:2,2021-09-02T16:45:00Z,27.7790,-90.5190,9.8,29.7,11111222
Chevron,ioos:station:wmo:42372:2,2021-09-02T16:55:00Z,27.7790,-90.5190,9.7,29.7,11111222
Chevron,ioos:station:wmo:42372:2,2021-09-02T17:05:00Z,27.7790,-90.5190,9.7,29.7,11111222
Chevron,ioos:station:wmo:42372:2,2021-09-02T17:15:00Z,27.7790,-90.5190,9.6,29.6,11111222
Chevron,ioos:station:wmo:42372:2,2021-09-02T17:25:00Z,27.7790,-90.5190,9.6,29.6,11111222
Chevron,ioos:station:wmo:42372:2,2021-09-02T17:35:00Z,27.7790,-90.5190,9.5,29.6,11111222
Chevron,ioos:station:wmo:42372:2,2021-09-02T17:45:00Z,27.7790,-90.5190,9.5,29.7,11111222
Chevron,ioos:station:wmo:42372:2,2021-09-02T17:55:00Z,27.7790,-90.5190,9.4,29.6,11111222
Chevron,ioos:station:wmo:42372:2,2021-09-02T18:05:00Z,27.7790,-90.5190,9.2,29.6,11111222
Chevron,ioos:station:wmo:42372:2,2021-09-02T18:15:00Z,27.7790,-90.5190,9.1,29.7,11111222
Chevron,ioos:station:wmo:42372:2,2021-09-02T18:25:00Z,27.7790,-90.5190,9.1,29.7,11111222
Chevron,ioos:station:wmo:42372:2,2021-09-02T18:35:00Z,27.7790,-90.5190,9.0,29.7,11111222
Chevron,ioos:station:wmo:42372:2,2021-09-02T18:45:00Z,27.7790,-90.5190,8.9,29.7,11111222
Chevron,ioos:station:wmo:42372:2,2021-09-02T18:55:00Z,27.7790,-90.5190,9.2,29.7,11111222
Chevron,ioos:station:wmo:42372:2,2021-09-02T19:05:00Z,27.7790,-90.5190,9.1,29.6,11111222
Chevron,ioos:station:wmo:42372:2,2021-09-02T19:15:00Z,27.7790,-90.5190,9.0,29.6,11111222
Chevron,ioos:station:wmo:42372:2,2021-09-02T19:25:00Z,27.7790,-90.5190,8.9,29.6,11111222
Chevron,ioos:station:wmo:42372:2,2021-09-02T19:35:00Z,27.7790,-90.5190,9.1,29.7,11111222
Chevron,ioos:station:wmo:42372:2,2021-09-02T19:45:00Z,27.7790,-90.5190,9.0,29.7,11111222
Chevron,ioos:station:wmo:42372:2,2021-09-02T19:55:00Z,27.7790,-90.5190,9.0,29.7,11111222
Chevron,ioos:station:wmo:42372:2,2021-09-02T20:05:00Z,27.7790,-90.5190,9.1,29.7,11111222
Chevron,ioos:station:wmo:42372:2,2021-09-02T20:15:00Z,27.7790,-90.5190,9.1,29.7,11111222
Chevron,ioos:station:wmo:42372:2,2021-09-02T20:25:00Z,27.7790,-90.5190,9.0,29.7,11111222
Chevron,ioos:station:wmo:42372:2,2021-09-02T20:35:00Z,27.7790,-90.5190,9.1,29.7,11111222
Chevron,ioos:station:wmo:42372:2,2021-09-02T20:45:00Z,27.7790,-90.5190,9.0,29.7,11111222
Chevron,ioos:station:wmo:42372:2,2021-09-02T20:55:00Z,27.7790,-90.5190,8.9,29.7,11111222
Chevron,ioos:station:wmo:42372:2,2021-09-02T21:05:00Z,27.7790,-90.5190,9.0,29.7,11111222
Chevron,ioos:station:wmo:42372:2,2021-09-02T21:15:00Z,27.7790,-90.5190,9.0,29.7,11111222
Chevron,ioos:station:wmo:42372:2,2021-09-02T21:25:00Z,27.7790,-90.5190,9.1,29.7,11111222
Chevron,ioos:station:wmo:42372:2,2021-09-02T21:35:00Z,27.7790,-90.5190,8.9,29.8,11111222
Chevron,ioos:station:wmo:42372:2,2021-09-02T21:45:00Z,27.7790,-90.5190,9.1,29.8,11111222
Chevron,ioos:station:wmo:42372:2,2021-09-02T21:55:00Z,27.7790,-90.5190,8.9,29.9,11111222
Chevron,ioos:station:wmo:42372:2,2021-09-02T22:05:00Z,27.7790,-90.5190,8.8,29.9,11111222
Chevron,ioos:station:wmo:42372:2,2021-09-02T22:15:00Z,27.7790,-90.5190,8.7,29.9,11111222
Chevron,ioos:station:wmo:42372:2,2021-09-02T22:25:00Z,27.7790,-90.5190,8.8,29.9,11111222
Chevron,ioos:station:wmo:42372:2,2021-09-02T22:35:00Z,27.7790,-90.5190,8.9,29.8,11111222
Chevron,ioos:station:wmo:42372:2,2021-09-02T22:45:00Z,27.7790,-90.5190,8.9,29.8,11111222
Chevron,ioos:station:wmo:42372:2,2021-09-02T22:55:00Z,27.7790,-90.5190,8.9,29.8,11111222
Chevron,ioos:station:wmo:42372:2,2021-09-02T23:05:00Z,27.7790,-90.5190,9.0,29.8,11111222
Chevron,ioos:station:wmo:42372:2,2021-09-02T23:15:00Z,27.7790,-90.5190,9.0,29.8,11111222
Chevron,ioos:station:wmo:42372:2,2021-09-02T23:25:00Z,27.7790,-90.5190,8.9,29.8,11111222
Chevron,ioos:station:wmo:42372:2,2021-09-02T23:35:00Z,27.7790,-90.5190,8.9,29.9,11111222
Chevron,ioos:station:wmo:42372:2,2021-09-02T23:45:00Z,27.7790,-90.5190,8.8,29.9,11111222
Chevron,ioos:station:wmo:42372:2,2021-09-02T23:55:00Z,27.7790,-90.5190,8.9,29.9,11111222
Chevron,ioos:station:wmo:42372:2,2021-09-03T00:05:00Z,27.7790,-90.5190,8.9,29.8,11111222
Chevron,ioos:station:wmo:42372:2,2021-09-03T00:15:00Z,27.7790,-90.5190,9.0,29.8,11111222
Chevron,ioos:station:wmo:42372:2,2021-09-03T00:25:00Z,27.7790,-90.5190,9.0,29.8,11111222
Chevron,ioos:station:wmo:42372:2,2021-09-03T00:35:00Z,27.7790,-90.5190,9.0,29.7,11111222
Chevron,ioos:station:wmo:42372:2,2021-09-03T00:45:00Z,27.7790,-90.5190,9.0,29.7,11111222
Chevron,ioos:station:wmo:42372:2,2021-09-03T00:55:00Z,27.7790,-90.5190,9.1,29.7,11111222
Chevron,ioos:station:wmo:42372:2,2021-09-03T01:05:00Z,27.7790,-90.5190,9.2,29.7,11111222
Chevron,ioos:station:wmo:42372:2,2021-09-03T01:15:00Z,27.7790,-90.5190,9.2,29.7,11111222
Chevron,ioos:station:wmo:42372:2,2021-09-03T01:25:00Z,27.7790,-90.5190,9.1,29.7,11111222
Chevron,ioos:station:wmo:42372:2,2021-09-03T01:35:00Z,27.7790,-90.5190,9.0,29.7,11111222
Chevron,ioos:station:wmo:42372:2,2021-09-03T01:45:00Z,27.7790,-90.5190,9.1,29.7,11111222
Chevron,ioos:station:wmo:42372:2,2021-09-03T01:55:00Z,27.7790,-90.5190,9.1,29.7,11111222
Chevron,ioos:station:wmo:42372:2,2021-09-03T02:05:00Z,27.7790,-90.5190,9.1,29.6,11111222
Chevron,ioos:station:wmo:42372:2,2021-09-03T02:15:00Z,27.7790,-90.5190,9.2,29.6,11111222
Chevron,ioos:station:wmo:42372:2,2021-09-03T02:25:00Z,27.7790,-90.5190,9.1,29.6,11111222
Chevron,ioos:station:wmo:42372:2,2021-09-03T02:35:00Z,27.7790,-90.5190,9.1,29.6,11111222
Chevron,ioos:station:wmo:42372:2,2021-09-03T02:45:00Z,27.7790,-90.5190,9.2,29.6,11111222
Chevron,ioos:station:wmo:42372:2,2021-09-03T02:55:00Z,27.7790,-90.5190,9.1,29.6,11111222
Chevron,ioos:station:wmo:42372:2,2021-09-03T03:05:00Z,27.7790,-90.5190,9.2,29.6,11111222
Chevron,ioos:station:wmo:42372:2,2021-09-03T03:15:00Z,27.7790,-90.5190,9.2,29.6,11111222
Chevron,ioos:station:wmo:42372:2,2021-09-03T03:25:00Z,27.7790,-90.5190,9.4,29.6,11111222
Chevron,ioos:station:wmo:42372:2,2021-09-03T03:35:00Z,27.7790,-90.5190,9.2,29.6,11111222
Chevron,ioos:station:wmo:42372:2,2021-09-03T03:45:00Z,27.7790,-90.5190,9.2,29.6,11111222
Chevron,ioos:station:wmo:42372:2,2021-09-03T03:55:00Z,27.7790,-90.5190,9.2,29.6,11111222
Chevron,ioos:station:wmo:42372:2,2021-09-03T04:05:00Z,27.7790,-90.5190,9.3,29.6,11111222
Chevron,ioos:station:wmo:42372:2,2021-09-03T04:15:00Z,27.7790,-90.5190,9.2,29.6,11111222
Chevron,ioos:station:wmo:42372:2,2021-09-03T04:25:00Z,27.7790,-90.5190,9.3,29.6,11111222
Chevron,ioos:station:wmo:42372:2,2021-09-03T04:35:00Z,27.7790,-90.5190,9.3,29.6,11111222
Chevron,ioos:station:wmo:42372:2,2021-09-03T04:45:00Z,27.7790,-90.5190,9.3,29.6,11111222
Chevron,ioos:station:wmo:42372:2,2021-09-03T04:55:00Z,27.7790,-90.5190,9.4,29.6,11111222
Chevron,ioos:station:wmo:42372:2,2021-09-03T05:05:00Z,27.7790,-90.5190,9.3,29.6,11111222
Chevron,ioos:station:wmo:42372:2,2021-09-03T05:15:00Z,27.7790,-90.5190,9.4,29.6,11111222
Chevron,ioos:station:wmo:42372:2,2021-09-03T05:25:00Z,27.7790,-90.5190,9.3,29.6,11111222
Chevron,ioos:station:wmo:42372:2,2021-09-03T05:35:00Z,27.7790,-90.5190,9.3,29.6,11111222
Chevron,ioos:station:wmo:42372:2,2021-09-03T05:45:00Z,27.7790,-90.5190,9.2,29.6,11111222
Chevron,ioos:station:wmo:42372:2,2021-09-03T05:55:00Z,27.7790,-90.5190,9.3,29.6,11111222
Chevron,ioos:station:wmo:42372:2,2021-09-03T06:05:00Z,27.7790,-90.5190,9.4,29.6,11111222
Chevron,ioos:station:wmo:42372:2,2021-09-03T06:15:00Z,27.7790,-90.5190,9.3,29.6,11111222
Chevron,ioos:station:wmo:42372:2,2021-09-03T06:25:00Z,27.7790,-90.5190,9.4,29.6,11111222
Chevron,ioos:station:wmo:42372:2,2021-09-03T06:35:00Z,27.7790,-90.5190,9.5,29.6,11111222
Chevron,ioos:station:wmo:42372:2,2021-09-03T06:45:00Z,27.7790,-90.5190,9.5,29.6,11111222
Chevron,ioos:station:wmo:42372:2,2021-09-03T06:55:00Z,27.7790,-90.5190,9.5,29.6,11111222
Chevron,ioos:station:wmo:42372:2,2021-09-03T07:05:00Z,27.7790,-90.5190,9.5,29.6,11111222
Chevron,ioos:station:wmo:42372:2,2021-09-03T07:15:00Z,27.7790,-90.5190,9.4,29.6,11111222
Chevron,ioos:station:wmo:42372:2,2021-09-03T07:25:00Z,27.7790,-90.5190,9.5,29.6,11111222
Chevron,ioos:station:wmo:42372:2,2021-09-03T07:35:00Z,27.7790,-90.5190,9.4,29.6,11111222
Chevron,ioos:station:wmo:42372:2,2021-09-03T07:45:00Z,27.7790,-90.5190,9.4,29.6,11111222
Chevron,ioos:station:wmo:42372:2,2021-09-03T07:55:00Z,27.7790,-90.5190,9.4,29.6,11111222
Chevron,ioos:station:wmo:42372:2,2021-09-03T08:05:00Z,27.7790,-90.5190,9.5,29.6,11111222
Chevron,ioos:station:wmo:42372:2,2021-09-03T08:15:00Z,27.7790,-90.5190,9.5,29.6,11111222
Chevron,ioos:station:wmo:42372:2,2021-09-03T08:25:00Z,27.7790,-90.5190,9.5,29.6,11111222
Chevron,ioos:station:wmo:42372:2,2021-09-03T08:35:00Z,27.7790,-90.5190,9.5,29.6,11111222
Chevron,ioos:station:wmo:42372:2,2021-09-03T08:45:00Z,27.7790,-90.5190,9.4,29.6,11111222
Chevron,ioos:station:wmo:42372:2,2021-09-03T08:55:00Z,27.7790,-90.5190,9.5,29.6,11111222
Chevron,ioos:station:wmo:42372:2,2021-09-03T09:05:00Z,27.7790,-90.5190,9.5,29.6,11111222
Chevron,ioos:station:wmo:42372:2,2021-09-03T09:15:00Z,27.7790,-90.5190,9.5,29.6,11111222
Chevron,ioos:station:wmo:42372:2,2021-09-03T09:25:00Z,27.7790,-90.5190,9.5,29.6,11111222
Chevron,ioos:station:wmo:42372:2,2021-09-03T09:35:00Z,27.7790,-90.5190,9.4,29.6,11111222
Chevron,ioos:station:wmo:42372:2,2021-09-03T09:45:00Z,27.7790,-90.5190,9.4,29.6,11111222
Chevron,ioos:station:wmo:42372:2,2021-09-03T09:55:00Z,27.7790,-90.5190,9.4,29.7,11111222
Chevron,ioos:station:wmo:42372:2,2021-09-03T10:05:00Z,27.7790,-90.5190,9.5,29.7,11111222
Chevron,ioos:station:wmo:42372:2,2021-09-03T10:15:00Z,27.7790,-90.5190,9.6,29.6,11111222
Chevron,ioos:station:wmo:42372:2,2021-09-03T10:25:00Z,27.7790,-90.5190,9.4,29.7,11111222
Chevron,ioos:station:wmo:42372:2,2021-09-03T10:35:00Z,27.7790,-90.5190,9.7,29.7,11111222
Chevron,ioos:station:wmo:42372:2,2021-09-03T10:45:00Z,27.7790,-90.5190,9.5,29.7,11111222
Chevron,ioos:station:wmo:42372:2,2021-09-03T10:55:00Z,27.7790,-90.5190,9.6,29.7,11111222
Chevron,ioos:station:wmo:42372:2,2021-09-03T11:05:00Z,27.7790,-90.5190,9.5,29.7,11111222
Chevron,ioos:station:wmo:42372:2,2021-09-03T11:15:00Z,27.7790,-90.5190,9.6,29.7,11111222
Chevron,ioos:station:wmo:42372:2,2021-09-03T11:25:00Z,27.7790,-90.5190,9.4,29.7,11111222
Chevron,ioos:station:wmo:42372:2,2021-09-03T11:35:00Z,27.7790,-90.5190,9.6,29.7,11111222
Chevron,ioos:station:wmo:42372:2,2021-09-03T11:45:00Z,27.7790,-90.5190,9.5,29.7,11111222
Chevron,ioos:station:wmo:42372:2,2021-09-03T11:56:00Z,27.7790,-90.5190,9.5,29.7,11111222
Chevron,ioos:station:wmo:42372:2,2021-09-03T12:06:00Z,27.7790,-90.5190,9.7,29.7,11111222
Chevron,ioos:station:wmo:42372:2,2021-09-03T12:16:00Z,27.7790,-90.5190,9.5,29.7,11111222
Chevron,ioos:station:wmo:42372:2,2021-09-03T12:26:00Z,27.7790,-90.5190,9.5,29.7,11111222
Chevron,ioos:station:wmo:42372:2,2021-09-03T12:36:00Z,27.7790,-90.5190,9.5,29.7,11111222
Chevron,ioos:station:wmo:42372:2,2021-09-03T12:46:00Z,27.7790,-90.5190,9.6,29.7,11111222
Chevron,ioos:station:wmo:42372:2,2021-09-03T12:56:00Z,27.7790,-90.5190,9.5,29.7,11111222
Chevron,ioos:station:wmo:42372:2,2021-09-03T13:06:00Z,27.7790,-90.5190,9.4,29.6,11111222
Chevron,ioos:station:wmo:42372:2,2021-09-03T13:16:00Z,27.7790,-90.5190,9.6,29.6,11111222
Chevron,ioos:station:wmo:42372:2,2021-09-03T13:26:00Z,27.7790,-90.5190,9.5,29.6,11111222
Chevron,ioos:station:wmo:42372:2,2021-09-03T13:36:00Z,27.7790,-90.5190,9.4,29.6,11111222
Chevron,ioos:station:wmo:42372:2,2021-09-03T13:46:00Z,27.7790,-90.5190,9.5,29.6,11111222
Chevron,ioos:station:wmo:42372:2,2021-09-03T13:56:00Z,27.7790,-90.5190,9.4,29.6,11111222
Chevron,ioos:station:wmo:42372:2,2021-09-03T14:06:00Z,27.7790,-90.5190,9.5,29.5,11111222
Chevron,ioos:station:wmo:42372:2,2021-09-03T14:16:00Z,27.7790,-90.5190,9.4,29.5,11111222
Chevron,ioos:station:wmo:42372:2,2021-09-03T14:26:00Z,27.7790,-90.5190,9.4,29.6,11111222
Chevron,ioos:station:wmo:42372:2,2021-09-03T14:36:00Z,27.7790,-90.5190,9.3,29.6,11111222
Chevron,ioos:station:wmo:42372:2,2021-09-03T14:46:00Z,27.7790,-90.5190,9.5,29.6,11111222
Chevron,ioos:station:wmo:42372:2,2021-09-03T14:56:00Z,27.7790,-90.5190,9.5,29.5,11111222
Chevron,ioos:station:wmo:42372:2,2021-09-03T15:06:00Z,27.7790,-90.5190,9.4,29.5,11111222
Chevron,ioos:station:wmo:42372:2,2021-09-03T15:16:00Z,27.7790,-90.5190,9.4,29.5,11111222
Chevron,ioos:station:wmo:42372:2,2021-09-03T15:26:00Z,27.7790,-90.5190,9.4,29.5,11111222
Chevron,ioos:station:wmo:42372:2,2021-09-03T15:36:00Z,27.7790,-90.5190,9.4,29.5,11111222
Chevron,ioos:station:wmo:42372:2,2021-09-03T15:46:00Z,27.7790,-90.5190,9.5,29.5,11111222
Chevron,ioos:station:wmo:42372:2,2021-09-03T15:56:00Z,27.7790,-90.5190,9.4,29.4,11111222
Chevron,ioos:station:wmo:42372:2,2021-09-03T16:06:00Z,27.7790,-90.5190,9.3,29.4,11111222
Chevron,ioos:station:wmo:42372:2,2021-09-03T16:16:00Z,27.7790,-90.5190,9.3,29.4,11111222
Chevron,ioos:station:wmo:42372:2,2021-09-03T16:26:00Z,27.7790,-90.5190,9.4,29.4,11111222
Chevron,ioos:station:wmo:42372:2,2021-09-03T16:36:00Z,27.7790,-90.5190,9.3,29.4,11111222
Chevron,ioos:station:wmo:42372:2,2021-09-03T16:46:00Z,27.7790,-90.5190,9.4,29.4,11111222
Chevron,ioos:station:wmo:42372:2,2021-09-03T16:56:00Z,27.7790,-90.5190,9.5,29.3,11111222
Chevron,ioos:station:wmo:42372:2,2021-09-03T17:06:00Z,27.7790,-90.5190,9.4,29.3,11111222
Chevron,ioos:station:wmo:42372:2,2021-09-03T17:16:00Z,27.7790,-90.5190,9.5,29.3,11111222
Chevron,ioos:station:wmo:42372:2,2021-09-03T17:26:00Z,27.7790,-90.5190,9.5,29.3,11111222
Chevron,ioos:station:wmo:42372:2,2021-09-03T17:36:00Z,27.7790,-90.5190,9.5,29.3,11111222
Chevron,ioos:station:wmo:42372:2,2021-09-03T17:46:00Z,27.7790,-90.5190,9.4,29.3,11111222
Chevron,ioos:station:wmo:42372:2,2021-09-03T17:56:00Z,27.7790,-90.5190,9.5,29.3,11111222
Chevron,ioos:station:wmo:42372:2,2021-09-03T18:06:00Z,27.7790,-90.5190,9.4,29.3,11111222
Chevron,ioos:station:wmo:42372:2,2021-09-03T18:16:00Z,27.7790,-90.5190,9.3,29.3,11111222
Chevron,ioos:station:wmo:42372:2,2021-09-03T18:26:00Z,27.7790,-90.5190,9.5,29.3,11111222
Chevron,ioos:station:wmo:42372:2,2021-09-03T18:36:00Z,27.7790,-90.5190,9.4,29.4,11111222
Chevron,ioos:station:wmo:42372:2,2021-09-03T18:46:00Z,27.7790,-90.5190,9.4,29.4,11111222
Chevron,ioos:station:wmo:42372:2,2021-09-03T18:56:00Z,27.7790,-90.5190,9.2,29.4,11111222
Chevron,ioos:station:wmo:42372:2,2021-09-03T19:06:00Z,27.7790,-90.5190,9.4,29.4,11111222
Chevron,ioos:station:wmo:42372:2,2021-09-03T19:16:00Z,27.7790,-90.5190,9.3,29.4,11111222
Chevron,ioos:station:wmo:42372:2,2021-09-03T19:26:00Z,27.7790,-90.5190,9.3,29.4,11111222
Chevron,ioos:station:wmo:42372:2,2021-09-03T19:36:00Z,27.7790,-90.5190,9.4,29.4,11111222
Chevron,ioos:station:wmo:42372:2,2021-09-03T19:46:00Z,27.7790,-90.5190,9.3,29.4,11111222
Chevron,ioos:station:wmo:42372:2,2021-09-03T19:56:00Z,27.7790,-90.5190,9.3,29.4,11111222
Chevron,ioos:station:wmo:42372:2,2021-09-03T20:06:00Z,27.7790,-90.5190,9.4,29.4,11111222
Chevron,ioos:station:wmo:42372:2,2021-09-03T20:16:00Z,27.7790,-90.5190,9.4,29.4,11111222
Chevron,ioos:station:wmo:42372:2,2021-09-03T20:26:00Z,27.7790,-90.5190,9.3,29.4,11111222
Chevron,ioos:station:wmo:42372:2,2021-09-03T20:36:00Z,27.7790,-90.5190,9.4,29.4,11111222
Chevron,ioos:station:wmo:42372:2,2021-09-03T20:46:00Z,27.7790,-90.5190,9.3,29.4,11111222
Chevron,ioos:station:wmo:42372:2,2021-09-03T20:56:00Z,27.7790,-90.5190,9.3,29.4,11111222
Chevron,ioos:station:wmo:42372:2,2021-09-03T21:06:00Z,27.7790,-90.5190,9.2,29.3,11111222
Chevron,ioos:station:wmo:42372:2,2021-09-03T21:16:00Z,27.7790,-90.5190,9.4,29.3,11111222
Chevron,ioos:station:wmo:42372:2,2021-09-03T21:26:00Z,27.7790,-90.5190,9.3,29.3,11111222
Chevron,ioos:station:wmo:42372:2,2021-09-03T21:36:00Z,27.7790,-90.5190,9.4,29.3,11111222
Chevron,ioos:station:wmo:42372:2,2021-09-03T21:46:00Z,27.7790,-90.5190,9.2,29.3,11111222
Chevron,ioos:station:wmo:42372:2,2021-09-03T21:56:00Z,27.7790,-90.5190,9.4,29.3,11111222
Chevron,ioos:station:wmo:42372:2,2021-09-03T22:06:00Z,27.7790,-90.5190,9.3,29.3,11111222
Chevron,ioos:station:wmo:42372:2,2021-09-03T22:16:00Z,27.7790,-90.5190,9.4,29.3,11111222
Chevron,ioos:station:wmo:42372:2,2021-09-03T22:26:00Z,27.7790,-90.5190,9.3,29.3,11111222
Chevron,ioos:station:wmo:42372:2,2021-09-03T22:36:00Z,27.7790,-90.5190,9.3,29.3,11111222
Chevron,ioos:station:wmo:42372:2,2021-09-03T22:46:00Z,27.7790,-90.5190,9.3,29.3,11111222
Chevron,ioos:station:wmo:42372:2,2021-09-03T22:56:00Z,27.7790,-90.5190,9.1,29.3,11111222
Chevron,ioos:station:wmo:42372:2,2021-09-03T23:06:00Z,27.7790,-90.5190,9.2,29.3,11111222
Chevron,ioos:station:wmo:42372:2,2021-09-03T23:16:00Z,27.7790,-90.5190,9.3,29.3,11111222
Chevron,ioos:station:wmo:42372:2,2021-09-03T23:26:00Z,27.7790,-90.5190,9.4,29.3,11111222
Chevron,ioos:station:wmo:42372:2,2021-09-03T23:36:00Z,27.7790,-90.5190,9.2,29.3,11111222
Chevron,ioos:station:wmo:42372:2,2021-09-03T23:46:00Z,27.7790,-90.5190,9.3,29.3,11111222
Chevron,ioos:station:wmo:42372:2,2021-09-03T23:56:00Z,27.7790,-90.5190,9.2,29.3,11111222
Chevron,ioos:station:wmo:42372:2,2021-09-04T00:06:00Z,27.7790,-90.5190,9.3,29.3,11111222
Chevron,ioos:station:wmo:42372:2,2021-09-04T00:16:00Z,27.7790,-90.5190,9.4,29.3,11111222
Chevron,ioos:station:wmo:42372:2,2021-09-04T00:26:00Z,27.7790,-90.5190,9.4,29.3,11111222
Chevron,ioos:station:wmo:42372:2,2021-09-04T00:36:00Z,27.7790,-90.5190,9.3,29.3,11111222
Chevron,ioos:station:wmo:42372:2,2021-09-04T00:46:00Z,27.7790,-90.5190,9.3,29.3,11111222
Chevron,ioos:station:wmo:42372:2,2021-09-04T00:56:00Z,27.7790,-90.5190,9.3,29.2,11111222
Chevron,ioos:station:wmo:42372:2,2021-09-04T01:06:00Z,27.7790,-90.5190,9.3,29.2,11111222
Chevron,ioos:station:wmo:42372:2,2021-09-04T01:16:00Z,27.7790,-90.5190,9.4,29.2,11111222
Chevron,ioos:station:wmo:42372:2,2021-09-04T01:26:00Z,27.7790,-90.5190,9.4,29.2,11111222
Chevron,ioos:station:wmo:42372:2,2021-09-04T01:36:00Z,27.7790,-90.5190,9.3,29.2,11111222
Chevron,ioos:station:wmo:42372:2,2021-09-04T01:46:00Z,27.7790,-90.5190,9.3,29.2,11111222
Chevron,ioos:station:wmo:42372:2,2021-09-04T01:56:00Z,27.7790,-90.5190,9.4,29.2,11111222
Chevron,ioos:station:wmo:42372:2,2021-09-04T02:06:00Z,27.7790,-90.5190,9.4,29.2,11111222
Chevron,ioos:station:wmo:42372:2,2021-09-04T02:16:00Z,27.7790,-90.5190,9.4,29.2,11111222
Chevron,ioos:station:wmo:42372:2,2021-09-04T02:26:00Z,27.7790,-90.5190,9.4,29.3,11111222
Chevron,ioos:station:wmo:42372:2,2021-09-04T02:36:00Z,27.7790,-90.5190,9.6,29.3,11111222
Chevron,ioos:station:wmo:42372:2,2021-09-04T02:46:00Z,27.7790,-90.5190,9.4,29.3,11111222
Chevron,ioos:station:wmo:42372:2,2021-09-04T02:56:00Z,27.7790,-90.5190,9.4,29.2,11111222
Chevron,ioos:station:wmo:42372:2,2021-09-04T03:06:00Z,27.7790,-90.5190,9.6,29.3,11111222
Chevron,ioos:station:wmo:42372:2,2021-09-04T03:16:00Z,27.7790,-90.5190,9.5,29.3,11111222
Chevron,ioos:station:wmo:42372:2,2021-09-04T03:26:00Z,27.7790,-90.5190,9.5,29.3,11111222
Chevron,ioos:station:wmo:42372:2,2021-09-04T03:36:00Z,27.7790,-90.5190,9.5,29.3,11111222
Chevron,ioos:station:wmo:42372:2,2021-09-04T03:46:00Z,27.7790,-90.5190,9.5,29.3,11111222
Chevron,ioos:station:wmo:42372:2,2021-09-04T03:56:00Z,27.7790,-90.5190,9.5,29.3,11111222
Chevron,ioos:station:wmo:42372:2,2021-09-04T04:06:00Z,27.7790,-90.5190,9.5,29.3,11111222
Chevron,ioos:station:wmo:42372:2,2021-09-04T04:16:00Z,27.7790,-90.5190,9.5,29.3,11111222
Chevron,ioos:station:wmo:42372:2,2021-09-04T04:26:00Z,27.7790,-90.5190,9.4,29.3,11111222
Chevron,ioos:station:wmo:42372:2,2021-09-04T04:36:00Z,27.7790,-90.5190,9.6,29.3,11111222
Chevron,ioos:station:wmo:42372:2,2021-09-04T04:46:00Z,27.7790,-90.5190,9.5,29.3,11111222
Chevron,ioos:station:wmo:42372:2,2021-09-04T04:56:00Z,27.7790,-90.5190,9.5,29.3,11111222
Chevron,ioos:station:wmo:42372:2,2021-09-04T05:06:00Z,27.7790,-90.5190,9.5,29.3,11111222
Chevron,ioos:station:wmo:42372:2,2021-09-04T05:16:00Z,27.7790,-90.5190,9.6,29.3,11111222
Chevron,ioos:station:wmo:42372:2,2021-09-04T05:26:00Z,27.7790,-90.5190,9.6,29.3,11111222
Chevron,ioos:station:wmo:42372:2,2021-09-04T05:36:00Z,27.7790,-90.5190,9.5,29.3,11111222
Chevron,ioos:station:wmo:42372:2,2021-09-04T05:46:00Z,27.7790,-90.5190,9.5,29.3,11111222
Chevron,ioos:station:wmo:42372:2,2021-09-04T05:56:00Z,27.7790,-90.5190,9.7,29.3,11111222
Chevron,ioos:station:wmo:42372:2,2021-09-04T06:06:00Z,27.7790,-90.5190,9.6,29.4,11111222
Chevron,ioos:station:wmo:42372:2,2021-09-04T06:16:00Z,27.7790,-90.5190,9.5,29.4,11111222
Chevron,ioos:station:wmo:42372:2,2021-09-04T06:26:00Z,27.7790,-90.5190,9.5,29.4,11111222
Chevron,ioos:station:wmo:42372:2,2021-09-04T06:36:00Z,27.7790,-90.5190,9.6,29.4,11111222
Chevron,ioos:station:wmo:42372:2,2021-09-04T06:46:00Z,27.7790,-90.5190,9.6,29.3,11111222
Chevron,ioos:station:wmo:42372:2,2021-09-04T06:56:00Z,27.7790,-90.5190,9.5,29.3,11111222
Chevron,ioos:station:wmo:42372:2,2021-09-04T07:06:00Z,27.7790,-90.5190,9.7,29.3,11111222
Chevron,ioos:station:wmo:42372:2,2021-09-04T07:16:00Z,27.7790,-90.5190,9.5,29.4,11111222
Chevron,ioos:station:wmo:42372:2,2021-09-04T07:26:00Z,27.7790,-90.5190,9.5,29.4,11111222
Chevron,ioos:station:wmo:42372:2,2021-09-04T07:36:00Z,27.7790,-90.5190,9.5,29.4,11111222
Chevron,ioos:station:wmo:42372:2,2021-09-04T07:46:00Z,27.7790,-90.5190,9.6,29.4,11111222
Chevron,ioos:station:wmo:42372:2,2021-09-04T07:56:00Z,27.7790,-90.5190,9.6,29.4,11111222
Chevron,ioos:station:wmo:42372:2,2021-09-04T08:06:00Z,27.7790,-90.5190,9.5,29.4,11111222
Chevron,ioos:station:wmo:42372:2,2021-09-04T08:16:00Z,27.7790,-90.5190,9.6,29.4,11111222
Chevron,ioos:station:wmo:42372:2,2021-09-04T08:26:00Z,27.7790,-90.5190,9.6,29.3,11111222
Chevron,ioos:station:wmo:42372:2,2021-09-04T08:36:00Z,27.7790,-90.5190,9.7,29.4,11111222
Chevron,ioos:station:wmo:42372:2,2021-09-04T08:46:00Z,27.7790,-90.5190,9.5,29.4,11111222
Chevron,ioos:station:wmo:42372:2,2021-09-04T08:56:00Z,27.7790,-90.5190,9.6,29.3,11111222
Chevron,ioos:station:wmo:42372:2,2021-09-04T09:06:00Z,27.7790,-90.5190,9.6,29.3,11111222
Chevron,ioos:station:wmo:42372:2,2021-09-04T09:16:00Z,27.7790,-90.5190,9.6,29.3,11111222
Chevron,ioos:station:wmo:42372:2,2021-09-04T09:26:00Z,27.7790,-90.5190,9.6,29.3,11111222
Chevron,ioos:station:wmo:42372:2,2021-09-04T09:36:00Z,27.7790,-90.5190,9.7,29.4,11111222
Chevron,ioos:station:wmo:42372:2,2021-09-04T09:46:00Z,27.7790,-90.5190,9.5,29.4,11111222
Chevron,ioos:station:wmo:42372:2,2021-09-04T09:56:00Z,27.7790,-90.5190,9.7,29.5,11111222
Chevron,ioos:station:wmo:42372:2,2021-09-04T10:06:00Z,27.7790,-90.5190,9.5,29.4,11111222
Chevron,ioos:station:wmo:42372:2,2021-09-04T10:16:00Z,27.7790,-90.5190,9.6,29.5,11111222
Chevron,ioos:station:wmo:42372:2,2021-09-04T10:26:00Z,27.7790,-90.5190,9.6,29.5,11111222
Chevron,ioos:station:wmo:42372:2,2021-09-04T10:36:00Z,27.7790,-90.5190,9.7,29.4,11111222
Chevron,ioos:station:wmo:42372:2,2021-09-04T10:46:00Z,27.7790,-90.5190,9.6,29.4,11111222
Chevron,ioos:station:wmo:42372:2,2021-09-04T10:56:00Z,27.7790,-90.5190,9.6,29.4,11111222
Chevron,ioos:station:wmo:42372:2,2021-09-04T11:06:00Z,27.7790,-90.5190,9.5,29.4,11111222
Chevron,ioos:station:wmo:42372:2,2021-09-04T11:16:00Z,27.7790,-90.5190,9.6,29.4,11111222